User: anonymous   Login
Location: Unspecified
(0.0000°N, 0.0000°E)
Time: 07:40:55
(UTC+00:00)
Language:

S-NET C - Orbit

View from above orbital plane
View from above orbital plane
View from above satellite
View from above satellite

Ground track
Ground track

The orbit data is extracted from the following two-line orbital elements,

1 43189U 18014K   21024.71447250 -.00000212  00000-0 -13408-4 0  9995
2 43189  97.6865 294.7837 0010198 196.2938 163.7958 14.96954839161347
Epoch (UTC): 24 January 2021 17:08:50
Eccentricity: 0.0010198
inclination: 97.6865°
perigee height: 569 km
apogee height: 583 km
right ascension of ascending node: 294.7837°
argument of perigee: 196.2938°
revolutions per day: 14.96954839
mean anomaly at epoch: 163.7958°
orbit number at epoch: 16134

The dashed part of the orbit path shows where the satellite is in the earth's shadow,  

DLR